Location: Fontevrault
(47.1823°N, 0.0493°E)
Time: 23:27:51
(UTC+00:00)

Cosmos 2285 Rocket - Visible Passes

Search period start: 23 October 2021 00:00
Search period end: 02 November 2021 00:00
Orbit: 970 x 999 km, 74.0° (Epoch: 23 October)

Date Brightness Start Highest point End Pass type
(mag) Time Alt. Az. Time Alt. Az. Time Alt. Az.
23 Oct 6.5 05:25:03 10° N 05:27:54 13° NE 05:30:44 10° ENE visible
24 Oct 6.3 05:52:26 10° N 05:57:10 21° NE 06:01:53 10° E visible
26 Oct 6.5 05:03:06 10° N 05:06:34 15° NE 05:10:00 10° ENE visible
27 Oct 6.1 05:30:41 10° N 05:35:45 24° NE 05:40:49 10° E visible
28 Oct 6.7 04:14:53 10° NNE 04:15:47 10° NNE 04:16:41 10° NE visible
28 Oct 5.4 05:58:40 10° N 06:04:41 39° ENE 06:10:39 10° SE visible
29 Oct 6.4 04:41:15 10° N 04:45:12 17° NE 04:49:09 10° E visible
30 Oct 6.0 05:08:58 10° N 05:14:19 27° NE 05:19:39 10° ESE visible
31 Oct 6.6 03:52:20 10° NNE 03:54:29 12° NE 03:56:38 10° NE visible
31 Oct 5.2 05:37:01 10° NNW 05:43:11 44° ENE 05:49:19 10° SE visible
01 Nov 6.4 04:19:26 10° N 04:23:50 19° NE 04:28:12 10° E visible
01 Nov 4.3 06:05:17 10° NNW 06:11:46 78° ENE 06:18:13 10° SSE visible
